FW7644 Weather Reports


time (UTC)temp
F
wind
direction
speed
knots
gust
knots
rain 1hr
in
rain 24hr
in
rain mn
in
humidity
%
barometer
mb
20260906171813 53 0.0 0.0 0.00 0.20 0.03 87 1022.4
20260906171311 53 0.0 0.0 0.00 0.20 0.03 87 1022.2
20260906170809 53 0.0 0.0 0.00 0.20 0.03 86 1022.7
20260906170307 55 0.0 0.0 0.00 0.20 0.03 83 1022.9
20260906165806 55 0.0 0.0 0.00 0.24 0.03 82 1022.8
20260906165306 55 0.0 0.0 0.00 0.24 0.03 84 1022.7
20260906164802 55 0.0 0.0 0.00 0.24 0.03 84 1023.1
20260906164300 55 0.0 0.0 0.00 0.24 0.03 84 1023.0
20260906163758 54 0.0 0.0 0.00 0.24 0.03 85 1022.9
20260906163256 54 0.0 0.0 0.00 0.24 0.03 85 1022.8
20260906162754 54 0.0 0.0 0.00 0.24 0.03 86 1022.9
20260906162252 54 0.0 0.0 0.00 0.24 0.03 85 1022.9
20260906161750 55 0.0 0.0 0.00 0.24 0.03 82 1022.9
20260906161249 56 0.0 0.0 0.00 0.24 0.03 78 1022.6
20260906160747 58 0.0 0.0 0.00 0.24 0.03 76 1022.8
20260906160245 57 0.0 0.0 0.00 0.24 0.03 80 1022.7
20260906155743 55 0.0 0.0 0.00 0.31 0.03 83 1022.6
20260906155241 55 0.0 0.0 0.00 0.31 0.03 83 1022.8
20260906154740 55 0.0 0.0 0.00 0.31 0.03 83 1023.0
20260906154238 54 0.0 0.0 0.00 0.31 0.03 86 1023.0
20260906153736 54 0.0 0.0 0.00 0.31 0.03 86 1023.2
20260906153235 54 0.0 0.0 0.00 0.31 0.03 85 1023.3
20260906152732 55 0.0 0.0 0.00 0.31 0.03 84 1023.2
20260906152231 57 0.0 0.0 0.00 0.31 0.03 79 1023.2
20260906151729 57 0.0 0.0 0.00 0.31 0.03 80 1023.4
20260906151228 57 0.0 0.0 0.00 0.31 0.03 80 1023.5
20260906150726 58 0.0 0.0 0.00 0.31 0.03 79 1023.4
20260906150224 57 0.0 0.0 0.00 0.31 0.03 79 1023.5
20260906145722 57 0.0 0.0 0.00 0.31 0.03 81 1023.6
20260906145221 57 0.0 0.0 0.00 0.31 0.03 80 1023.7
20260906144719 57 0.0 0.0 0.00 0.31 0.03 80 1023.7
20260906144217 57 0.0 0.0 0.00 0.31 0.03 81 1023.8
20260906143715 56 0.0 0.0 0.00 0.31 0.03 82 1023.9
20260906143213 55 0.0 0.0 0.00 0.31 0.03 82 1023.9
20260906142711 57 0.0 0.0 0.00 0.31 0.03 82 1024.0
20260906142210 56 0.0 0.0 0.00 0.31 0.03 83 1023.8
20260906141708 55 0.0 0.0 0.00 0.31 0.03 86 1023.9
20260906141206 54 0.0 0.0 0.00 0.31 0.03 88 1024.1
20260906140704 55 0.0 0.0 0.00 0.31 0.03 88 1024.1
20260906140202 54 0.0 0.0 0.00 0.31 0.03 91 1024.2
20260906135700 54 0.0 0.0 0.00 0.31 0.03 90 1024.2
20260906135158 54 0.0 0.0 0.00 0.31 0.03 90 1024.1
20260906134657 55 0.0 0.0 0.00 0.31 0.03 91 1024.1
20260906134155 54 0.0 0.0 0.00 0.31 0.03 92 1023.9
20260906133653 54 0.0 0.0 0.00 0.31 0.03 93 1024.0
20260906133151 54 0.0 0.0 0.00 0.31 0.03 94 1024.1
20260906132650 53 0.0 0.0 0.00 0.31 0.03 95 1024.0
20260906132148 53 0.0 0.0 0.00 0.31 0.03 97 1024.2
20260906131646 52 0.0 0.0 0.00 0.31 0.03 97 1024.2
20260906131144 53 0.0 0.0 0.00 0.31 0.03 95 1024.4
20260906130642 53 0.0 0.0 0.00 0.31 0.03 95 1024.2
20260906130140 53 0.0 0.0 0.00 0.31 0.03 93 1024.1
20260906125638 54 0.0 0.0 0.00 0.40 0.03 93 1024.0
20260906125136 54 0.0 0.0 0.00 0.40 0.03 95 1023.9
20260906124634 54 0.0 0.0 0.00 0.40 0.03 94 1023.9
20260906124132 54 0.0 0.0 0.00 0.40 0.03 98 1023.9
20260906123630 53 0.0 0.0 0.00 0.40 0.03 99 1023.5
20260906123127 53 0.0 0.0 0.00 0.40 0.03 99 1023.6
20260906122625 52 0.0 0.0 0.00 0.40 0.03 99 1023.3
20260906122123 51 0.0 0.0 0.00 0.40 0.03 99 1023.3
20260906121620 51 0.0 0.0 0.00 0.40 0.03 99 1023.3
20260906121118 51 0.0 0.0 0.00 0.40 0.03 99 1023.4
20260906120615 51 0.0 0.0 0.00 0.40 0.03 99 1023.4
20260906120113 52 0.0 0.0 0.00 0.40 0.03 99 1023.3
20260906115611 52 0.0 0.0 0.00 0.40 0.03 99 1023.3
20260906115109 51 0.0 0.0 0.00 0.40 0.03 99 1023.2
20260906114607 51 0.0 0.0 0.00 0.40 0.03 99 1023.3
20260906114106 51 0.0 0.0 0.00 0.40 0.03 99 1023.2
20260906113603 51 0.0 0.0 0.00 0.40 0.03 99 1023.0
20260906113101 51 0.0 0.0 0.00 0.40 0.03 99 1022.9
20260906112559 52 0.0 0.0 0.00 0.40 0.03 99 1022.9
20260906112058 52 0.0 0.0 0.00 0.40 0.03 99 1022.8
20260906111556 52 0.0 0.0 0.00 0.40 0.03 99 1022.9
20260906111054 52 0.0 0.0 0.00 0.40 0.03 99 1022.8
20260906110552 52 0.0 0.0 0.00 0.40 0.03 99 1022.7
20260906110049 52 0.0 0.0 0.00 0.40 0.03 99 1023.0
20260906105548 52 0.0 0.0 0.00 0.59 0.03 99 1022.9
20260906105046 51 0.0 0.0 0.00 0.59 0.03 99 1022.8
20260906104545 51 0.0 0.0 0.00 0.59 0.03 99 1022.7
20260906104043 51 0.0 0.0 0.00 0.59 0.03 99 1022.7
20260906103541 51 0.0 0.0 0.00 0.59 0.03 99 1022.6
20260906103039 51 0.0 0.0 0.00 0.59 0.03 99 1022.6
20260906102538 51 0.0 0.0 0.00 0.59 0.03 99 1022.6
20260906102036 51 0.0 0.0 0.00 0.59 0.03 99 1022.5
20260906101534 51 0.0 0.0 0.00 0.59 0.03 99 1022.4
20260906101033 50 0.0 0.0 0.00 0.59 0.03 99 1022.3
20260906100531 50 0.0 0.0 0.00 0.59 0.03 99 1022.3
20260906100029 50 0.0 0.0 0.00 0.59 0.03 99 1022.3
20260906095527 50 0.0 0.0 0.00 0.60 0.03 99 1022.2
20260906095026 50 0.0 0.0 0.00 0.60 0.03 99 1022.1
20260906094524 50 0.0 0.0 0.00 0.60 0.03 99 1022.2
20260906094022 50 0.0 0.0 0.00 0.60 0.03 99 1022.4
20260906093520 50 0.0 0.0 0.00 0.60 0.03 99 1022.5
20260906093019 50 0.0 0.0 0.00 0.60 0.03 99 1022.6
20260906092517 50 0.0 0.0 0.00 0.60 0.03 99 1022.3
20260906092016 50 0.0 0.0 0.00 0.60 0.03 99 1022.0
20260906091514 50 0.0 0.0 0.00 0.60 0.03 99 1022.0
20260906091012 50 0.0 0.0 0.00 0.60 0.03 99 1022.2
20260906090511 50 0.0 0.0 0.00 0.60 0.03 99 1022.2
20260906090009 50 0.0 0.0 0.00 0.60 0.03 99 1022.0
20260906085507 50 0.0 0.0 0.00 0.60 0.03 99 1022.0
20260906085005 50 0.0 0.0 0.00 0.60 0.03 99 1021.8
20260906084504 50 0.0 0.0 0.00 0.60 0.03 99 1021.8
20260906084002 50 0.0 0.0 0.00 0.60 0.03 99 1021.7
20260906083501 50 0.0 0.0 0.00 0.60 0.03 99 1021.8
20260906082959 50 0.0 0.0 0.00 0.60 0.03 99 1021.7
20260906082458 50 0.0 0.0 0.00 0.60 0.03 99 1021.5
20260906081956 50 0.0 0.0 0.00 0.60 0.03 99 1021.5
20260906081454 50 0.0 0.0 0.00 0.60 0.03 99 1021.2
20260906080952 50 0.0 0.0 0.00 0.60 0.03 99 1020.8
20260906080451 50 0.0 0.0 0.00 0.60 0.03 99 1020.7
20260906075949 50 0.0 0.0 0.00 0.60 0.03 99 1020.8
20260906075448 50 0.0 0.0 0.00 0.60 0.03 99 1020.9
20260906074946 50 0.0 0.0 0.00 0.60 0.03 99 1020.7
20260906074445 50 0.0 0.0 0.00 0.60 0.03 99 1020.6
20260906073943 50 0.0 0.0 0.00 0.60 0.03 99 1020.5
20260906073442 50 0.0 0.0 0.00 0.60 0.03 99 1020.6
20260906072941 50 0.0 0.0 0.00 0.60 0.03 99 1020.5
20260906072439 50 0.0 0.0 0.00 0.60 0.03 99 1020.3
20260906071937 50 0.0 0.0 0.00 0.60 0.03 99 1020.4
20260906071436 50 0.0 0.0 0.00 0.60 0.03 99 1020.5
20260906070934 50 0.0 0.0 0.00 0.60 0.03 99 1020.6
20260906070433 50 0.0 0.0 0.00 0.60 0.03 99 1020.6
20260906065931 50 0.0 0.0 0.00 0.60 0.03 99 1020.6
20260906065429 50 0.0 0.0 0.00 0.60 0.03 99 1020.6
20260906064928 50 0.0 0.0 0.00 0.60 0.03 99 1020.6
20260906064426 50 0.0 0.0 0.00 0.60 0.03 99 1020.7
20260906063924 50 0.0 0.0 0.00 0.60 0.03 99 1020.8
20260906063423 50 0.0 0.0 0.00 0.60 0.03 99 1020.7
20260906062921 50 0.0 0.0 0.00 0.60 0.03 99 1020.7
20260906062421 50 0.0 0.0 0.00 0.60 0.03 99 1020.6
20260906061918 50 0.0 0.0 0.00 0.60 0.03 99 1020.5
20260906061416 50 0.0 0.0 0.00 0.60 0.03 99 1020.6
20260906060915 50 0.0 0.0 0.00 0.60 0.03 99 1020.7
20260906060413 50 0.0 0.0 0.00 0.60 0.03 99 1020.8
20260906055911 50 0.0 0.0 0.00 0.60 0.03 99 1020.8
20260906055410 50 0.0 0.0 0.00 0.60 0.03 99 1020.8
20260906054908 50 0.0 0.0 0.00 0.60 0.03 99 1020.7
20260906054407 50 0.0 0.0 0.00 0.60 0.03 99 1020.6
20260906053905 50 0.0 0.0 0.01 0.60 0.03 99 1020.5
20260906053403 50 0.0 0.0 0.01 0.60 0.03 99 1020.5
20260906052902 50 0.0 0.0 0.01 0.60 0.03 99 1020.5
20260906052401 50 0.0 0.0 0.01 0.60 0.03 99 1020.5
20260906051859 50 0.0 0.0 0.01 0.60 0.03 99 1020.4
20260906051357 50 0.0 0.0 0.01 0.60 0.03 99 1020.4
20260906050856 50 0.0 0.0 0.02 0.60 0.03 99 1020.2
20260906050354 50 0.0 0.0 0.02 0.60 0.03 99 1020.4
20260906045852 50 0.0 0.0 0.03 0.60 0.03 99 1020.6
20260906045352 50 0.0 0.0 0.03 0.60 0.03 99 1020.4
20260906044850 50 0.0 0.0 0.03 0.60 0.03 99 1020.3
20260906044349 50 0.0 0.0 0.03 0.60 0.03 99 1020.4
20260906043847 50 0.0 0.0 0.03 0.60 0.03 99 1020.8
20260906043345 50 0.0 0.0 0.02 0.59 0.02 99 1020.8
20260906042844 50 0.0 0.0 0.02 0.59 0.02 99 1020.7
20260906042343 50 0.0 0.0 0.02 0.59 0.02 99 1020.8
20260906041841 50 0.0 0.0 0.02 0.59 0.02 99 1021.2
20260906041339 50 0.0 0.0 0.02 0.59 0.02 99 1021.0
20260906040838 50 0.0 0.0 0.02 0.59 0.02 99 1021.0
20260906040337 50 0.0 0.0 0.01 0.58 0.01 99 1021.0
20260906035835 50 0.0 0.0 0.01 0.58 0.01 99 1021.2
20260906035334 50 0.0 0.0 0.00 0.57 0.00 99 1021.2
20260906034832 51 0.0 0.0 0.00 0.57 0.00 99 1021.3
20260906034331 51 0.0 0.0 0.00 0.57 0.00 99 1021.1
20260906033829 50 0.0 0.0 0.00 0.57 0.00 99 1021.4
20260906033327 51 0.0 0.0 0.00 0.57 0.00 99 1021.5
20260906032826 51 0.0 0.0 0.00 0.57 0.00 99 1021.5
20260906032324 51 0.0 0.0 0.00 0.57 0.00 99 1021.3
20260906031822 51 0.0 0.0 0.00 0.57 0.00 99 1021.4
20260906031321 51 0.0 0.0 0.00 0.57 0.00 99 1021.3
20260906030819 50 0.0 0.0 0.00 0.57 0.00 99 1021.0
20260906030318 50 0.0 0.0 0.00 0.57 0.00 99 1020.7
20260906025816 50 0.0 0.0 0.00 0.61 0.57 99 1021.1
20260906025314 51 0.0 0.0 0.00 0.61 0.57 99 1021.3
20260906024813 51 0.0 0.0 0.01 0.61 0.57 99 1021.0
20260906024311 51 0.0 0.0 0.01 0.61 0.57 99 1020.9
20260906023810 51 0.0 0.0 0.01 0.61 0.57 99 1021.0
20260906023308 51 0.0 0.0 0.01 0.61 0.57 99 1021.1
20260906022806 50 0.0 0.0 0.01 0.61 0.57 99 1021.0
20260906022307 50 0.0 0.0 0.01 0.61 0.57 99 1020.9
20260906021804 50 0.0 0.0 0.02 0.61 0.57 99 1020.9
20260906021302 50 0.0 0.0 0.02 0.61 0.57 99 1020.8
20260906020801 50 0.0 0.0 0.02 0.61 0.57 99 1020.6
20260906020259 50 0.0 0.0 0.02 0.61 0.57 99 1020.7
20260906015757 51 0.0 0.0 0.03 0.62 0.57 99 1021.0
20260906015256 51 0.0 0.0 0.03 0.62 0.57 99 1021.1
20260906014754 51 0.0 0.0 0.04 0.62 0.57 99 1021.2
20260906014252 51 0.0 0.0 0.03 0.61 0.56 99 1021.2
20260906013750 51 0.0 0.0 0.03 0.61 0.56 99 1020.9
20260906013248 51 0.0 0.0 0.03 0.61 0.56 99 1020.9
20260906012746 51 0.0 0.0 0.04 0.61 0.56 99 1020.7
20260906012244 51 0.0 0.0 0.04 0.61 0.56 99 1020.7
20260906011742 50 0.0 0.0 0.04 0.60 0.55 99 1020.8
20260906011240 51 0.0 0.0 0.04 0.60 0.55 99 1020.8
20260906010738 50 0.0 0.0 0.05 0.60 0.55 99 1020.6
20260906010236 50 0.0 0.0 0.05 0.60 0.55 99 1020.5
20260906005734 50 0.0 0.0 0.05 0.60 0.55 99 1020.4
20260906005232 50 0.0 0.0 0.05 0.60 0.55 99 1020.4
20260906004730 51 0.0 0.0 0.03 0.58 0.53 99 1020.5
20260906004228 51 0.0 0.0 0.03 0.58 0.53 99 1020.3
20260906003725 51 0.0 0.0 0.04 0.58 0.53 99 1020.6
20260906003224 50 0.0 0.0 0.04 0.58 0.53 99 1020.3
20260906002722 50 0.0 0.0 0.04 0.57 0.52 99 1019.9
20260906002220 50 0.0 0.0 0.04 0.57 0.52 99 1019.9
20260906001718 50 0.0 0.0 0.04 0.57 0.52 99 1020.1
20260906001216 51 0.0 0.0 0.03 0.56 0.51 99 1020.2
20260906000714 51 0.0 0.0 0.03 0.56 0.51 99 1020.4
20260906000212 51 0.0 0.0 0.02 0.55 0.50 99 1020.1
20260905235711 51 0.0 0.0 0.02 0.55 0.50 99 1019.9
20260905235208 51 0.0 0.0 0.02 0.55 0.50 99 1019.8
20260905234706 51 0.0 0.0 0.03 0.55 0.50 99 1019.7
20260905234204 51 0.0 0.0 0.03 0.55 0.50 99 1019.9
20260905233702 51 0.0 0.0 0.02 0.54 0.49 99 1019.8
20260905233200 51 0.0 0.0 0.02 0.54 0.49 99 1019.7
20260905232658 51 0.0 0.0 0.03 0.54 0.49 99 1019.5
20260905232156 51 0.0 0.0 0.02 0.53 0.48 99 1019.4
20260905231654 51 0.0 0.0 0.03 0.53 0.48 99 1019.1
20260905231153 51 0.0 0.0 0.03 0.53 0.48 99 1018.8
20260905230651 51 0.0 0.0 0.03 0.53 0.48 99 1018.7
20260905230149 51 0.0 0.0 0.03 0.53 0.48 99 1018.5
20260905225648 51 0.0 0.0 0.03 0.53 0.48 99 1018.4
20260905225146 51 0.0 0.0 0.03 0.53 0.48 99 1018.4
20260905224644 51 0.0 0.0 0.02 0.52 0.47 99 1018.2
20260905224143 51 0.0 0.0 0.02 0.52 0.47 99 1018.4
20260905223641 51 0.0 0.0 0.02 0.52 0.47 99 1018.3
20260905223140 51 0.0 0.0 0.02 0.52 0.47 99 1018.2
20260905222638 51 0.0 0.0 0.02 0.52 0.47 99 1018.4
20260905222136 51 0.0 0.0 0.02 0.52 0.47 99 1018.3
20260905221635 51 0.0 0.0 0.00 0.50 0.45 99 1018.2
20260905221133 51 0.0 0.0 0.00 0.50 0.45 99 1018.0
20260905220631 51 0.0 0.0 0.00 0.50 0.45 99 1017.8
20260905220129 51 0.0 0.0 0.00 0.50 0.45 99 1017.5
20260905215628 51 0.0 0.0 0.00 0.51 0.45 99 1017.5
20260905215126 51 0.0 0.0 0.00 0.51 0.45 99 1017.5
20260905214625 51 0.0 0.0 0.00 0.51 0.45 99 1017.5
20260905214123 52 0.0 0.0 0.00 0.51 0.45 99 1017.3
20260905213621 51 0.0 0.0 0.01 0.51 0.45 99 1017.3
20260905213119 51 0.0 0.0 0.01 0.51 0.45 99 1017.5
20260905212617 51 0.0 0.0 0.03 0.51 0.45 99 1017.5
20260905212115 52 0.0 0.0 0.03 0.51 0.45 99 1017.7
20260905211614 52 0.0 0.0 0.03 0.51 0.45 99 1017.6
20260905211112 52 0.0 0.0 0.03 0.51 0.45 99 1017.6
20260905210610 51 0.0 0.0 0.03 0.51 0.45 99 1017.5
20260905210109 52 0.0 0.0 0.03 0.51 0.45 99 1017.1
20260905205607 52 0.0 0.0 0.03 0.58 0.45 99 1016.8
20260905205105 52 0.0 0.0 0.03 0.58 0.45 99 1017.5
20260905204603 52 0.0 0.0 0.03 0.58 0.45 99 1017.1
20260905204102 52 0.0 0.0 0.03 0.58 0.45 99 1017.0
20260905203600 52 0.0 0.0 0.03 0.58 0.45 99 1016.7
20260905203058 52 0.0 0.0 0.02 0.57 0.44 99 1017.0
20260905202557 52 0.0 0.0 0.01 0.56 0.43 99 1016.7
20260905202055 52 0.0 0.0 0.01 0.56 0.43 99 1016.7
20260905201553 52 0.0 0.0 0.00 0.55 0.42 99 1016.9
20260905201051 52 0.0 0.0 0.00 0.55 0.42 99 1016.7
20260905200550 52 0.0 0.0 0.00 0.55 0.42 99 1016.6
20260905200048 52 0.0 0.0 0.00 0.55 0.42 99 1016.5
20260905195546 52 0.0 0.0 0.00 0.56 0.42 99 1016.6
20260905195044 53 0.0 0.0 0.00 0.56 0.42 99 1016.5
20260905194542 53 0.0 0.0 0.00 0.56 0.42 99 1016.4
20260905194040 53 0.0 0.0 0.00 0.56 0.42 99 1016.3
20260905193539 53 0.0 0.0 0.00 0.56 0.42 99 1016.2
20260905193037 53 0.0 0.0 0.00 0.56 0.42 99 1016.2
20260905192535 53 0.0 0.0 0.00 0.56 0.42 99 1016.4
20260905192034 53 0.0 0.0 0.00 0.56 0.42 99 1016.5
20260905191532 53 0.0 0.0 0.00 0.56 0.42 99 1016.5
20260905191030 53 0.0 0.0 0.00 0.56 0.42 99 1016.4
20260905190528 53 0.0 0.0 0.00 0.56 0.42 99 1016.4
20260905190026 53 0.0 0.0 0.00 0.56 0.42 99 1016.3
20260905185525 54 0.0 0.0 0.00 0.56 0.42 99 1016.1
20260905185023 53 0.0 0.0 0.00 0.56 0.42 99 1016.4
20260905184522 53 0.0 0.0 0.01 0.56 0.42 99 1016.1
20260905184020 53 0.0 0.0 0.01 0.56 0.42 99 1016.3
20260905183518 54 0.0 0.0 0.01 0.56 0.42 99 1016.4
20260905183016 54 0.0 0.0 0.01 0.56 0.42 99 1016.2
20260905182514 54 0.0 0.0 0.01 0.56 0.42 99 1016.1
20260905182013 54 0.0 0.0 0.01 0.56 0.42 99 1016.2
20260905181511 54 0.0 0.0 0.02 0.56 0.42 99 1016.2
20260905181009 55 0.0 0.0 0.02 0.56 0.42 99 1016.1
20260905180508 55 0.0 0.0 0.02 0.56 0.42 99 1016.1
20260905180006 55 0.0 0.0 0.02 0.56 0.42 99 1016.1
20260905175504 55 0.0 0.0 0.04 0.67 0.42 99 1016.0
20260905175002 55 0.0 0.0 0.04 0.67 0.42 99 1016.1
20260905174500 55 0.0 0.0 0.04 0.66 0.41 99 1016.3
20260905173958 55 0.0 0.0 0.04 0.66 0.41 99 1016.4
20260905173457 55 0.0 0.0 0.04 0.66 0.41 99 1016.6
20260905172955 55 0.0 0.0 0.04 0.66 0.41 99 1016.5
20260905172454 55 0.0 0.0 0.04 0.66 0.41 99 1016.4
20260905171952 55 0.0 0.0 0.05 0.66 0.41 99 1016.1